Location: Unspecified
(0.0000°N, 0.0000°E)
Time: 12:42:29
(UTC+00:00)

deb Explorer IX - All Passes

Search period start: 12 April 2021 00:00
Search period end: 22 April 2021 00:00
Orbit: 539 x 1100 km, 38.8° (Epoch: 11 April)

Date Brightness Start Highest point End Pass type
(mag) Time Alt. Az. Time Alt. Az. Time Alt. Az.
12 Apr - 05:24:22 10° SSW 05:27:50 27° SE 05:31:27 10° E visible
12 Apr - 07:10:54 10° W 07:14:26 26° NW 07:18:18 10° NNE daylight
12 Apr - 16:17:35 10° N 16:22:49 21° NE 16:28:00 10° E daylight
12 Apr - 18:03:01 10° NW 18:10:21 86° SW 18:17:13 10° SE daylight
12 Apr - 19:53:16 10° W 19:57:36 17° SW 20:01:42 10° S visible
13 Apr - 05:00:46 10° SSW 05:04:13 26° SE 05:07:45 10° E visible
13 Apr - 06:47:21 10° W 06:50:48 25° NW 06:54:30 10° NNE daylight
13 Apr - 15:53:44 10° N 15:58:56 21° NE 16:04:10 10° E daylight
13 Apr - 17:39:07 10° NW 17:46:27 86° SW 17:53:27 10° SE daylight
13 Apr - 19:29:17 10° W 19:33:46 18° SW 19:38:02 10° S visible
14 Apr - 04:37:08 10° SSW 04:40:35 26° SE 04:44:05 10° E visible
14 Apr - 06:23:49 10° W 06:27:10 24° NW 06:30:43 10° NNE daylight
14 Apr - 15:29:54 10° N 15:35:04 21° NE 15:40:18 10° E daylight
14 Apr - 17:15:14 10° NW 17:22:33 86° SW 17:29:40 10° SE daylight
14 Apr - 19:05:19 10° W 19:09:56 18° SW 19:14:21 10° S visible
15 Apr - 04:13:29 10° SSW 04:16:58 27° SE 04:20:26 10° E visible
15 Apr - 06:00:15 10° W 06:03:32 23° NW 06:06:58 10° NNE daylight
15 Apr - 15:06:06 10° N 15:11:12 21° NE 15:16:26 10° E daylight
15 Apr - 16:51:22 10° NW 16:58:40 86° SW 17:05:51 10° SE daylight
15 Apr - 18:41:22 10° W 18:46:04 18° SW 18:50:38 10° S visible
16 Apr - 03:49:49 10° SSW 03:53:21 27° SE 03:56:49 10° E visible
16 Apr - 05:36:40 10° W 05:39:55 23° NW 05:43:15 10° NNE visible
16 Apr - 14:42:19 10° N 14:47:21 21° NE 14:52:32 10° E daylight
16 Apr - 16:27:32 10° NW 16:34:46 86° SW 16:42:02 10° SE daylight
16 Apr - 18:17:27 10° W 18:22:14 19° SW 18:26:54 10° S visible
17 Apr - 03:26:08 10° SSW 03:29:45 27° SE 03:33:13 10° E visible
17 Apr - 05:13:05 10° W 05:16:18 22° NW 05:19:34 10° NNE visible
17 Apr - 14:18:35 10° N 14:23:29 20° NE 14:28:37 10° E daylight
17 Apr - 16:03:42 10° NW 16:10:51 86° SW 16:18:11 10° SE daylight
17 Apr - 17:53:33 10° W 17:58:22 19° SW 18:03:07 10° S daylight
18 Apr - 03:02:25 10° SSW 03:06:08 28° SE 03:09:39 10° E visible
18 Apr - 04:49:28 10° W 04:52:41 22° NW 04:55:54 10° NNE visible
18 Apr - 13:54:52 10° N 13:59:39 20° NE 14:04:41 10° E daylight
18 Apr - 15:39:54 10° NW 15:46:58 85° SW 15:54:19 10° SE daylight
18 Apr - 17:29:41 10° W 17:34:32 19° SW 17:39:19 10° S daylight
19 Apr - 02:38:41 10° SSW 02:42:31 29° SE 02:46:06 10° E night (unlit)
19 Apr - 04:25:50 10° W 04:29:05 22° NW 04:32:16 10° NNE visible
19 Apr - 13:31:11 10° N 13:35:49 20° NE 13:40:44 10° E daylight
19 Apr - 15:16:08 10° NW 15:23:04 85° SW 15:30:27 10° SE daylight
19 Apr - 17:05:50 10° W 17:10:40 19° SW 17:15:30 10° S daylight
20 Apr - 02:14:55 10° SSW 02:18:53 30° SE 02:22:33 10° E night (unlit)
20 Apr - 04:02:10 10° W 04:05:28 22° NW 04:08:39 10° NNE visible
20 Apr - 13:07:32 10° N 13:12:00 19° NE 13:16:46 10° E daylight
20 Apr - 14:52:23 10° NW 14:59:12 85° SW 15:06:33 10° SE daylight
20 Apr - 16:42:02 10° W 16:46:49 19° SW 16:51:40 10° S daylight
21 Apr - 01:51:08 10° SSW 01:55:16 31° SE 01:59:01 10° ENE night (unlit)
21 Apr - 03:38:29 10° W 03:41:51 22° NW 03:45:04 10° NNE visible
21 Apr - 12:43:54 10° N 12:48:11 19° NE 12:52:48 10° E daylight
21 Apr - 14:28:39 10° NW 14:35:20 85° SW 14:42:39 10° SE daylight
21 Apr - 16:18:15 10° W 16:22:58 19° SW 16:27:48 10° S daylight
